www.pogodaiklimat.ru

ПОГОДА в Дербенте

АРХИВ ПОГОДЫ в Дербенте

Время (UTC), дата Ветер
(напр.,м/с)
 
Видим.   Явления Облачность Т
(С)
Тd
(С)
f
(%)
Тe
(С)
Тes
(С)
Комфортность P
(гПа)
Po
(гПа)
Тmin
(С)
Tmax
(С)
R
(мм)
S
(см)
03 11.01 штиль 0 10 км 10/10 600 м
[Sc]
+3.3 +1.2 86 +2 +2 по сезону 1028.2 1030.5 +3.3
06 11.01 ЮВ 1 20 км 10/10 600 м
[Sc]
+3.4 +1.4 87 +2 +2 по сезону 1028.9 1031.2 +2.5
09 11.01 ЮВ 3 20 км 10/10 600 м
[Sc]
+4.6 +1.7 81 +1 +1 по сезону 1027.0 1029.3
12 11.01 ЮВ 1 20 км 10/10 600 м
[Sc]
+4.7 +2.5 86 +3 +3 по сезону 1026.2 1028.4
15 11.01 ЮВ 1 10 км 10/10 300 м
[Cb cap]
+5.1 +3.0 86 +4 +4 по сезону 1026.2 1028.5 +5.2
18 11.01 штиль 0 10 км 10/10 300 м
[Cb cap]
+5.2 +3.0 86 +4 +4 по сезону 1026.9 1029.2
21 11.01 СЗ 2 4000 м {ливн. осадки} 10/10 300 м
[Cb cap]
+5.0 +3.1 88 +2 +2 по сезону 1026.9 1029.2
00 12.01 СЗ 3 10 км {ливн. осадки} 10/10 300 м
[Cb cap]
+5.1 +2.1 81 +2 +2 по сезону 1027.6 1029.9
03 12.01 СЗ 3 10 км 10/10 600 м
[Sc]
+4.8 +1.6 80 +1 +1 по сезону 1028.5 1030.8 +4.7
06 12.01 С 3 20 км 4/0
[Ac trans]
+4.2 +2.4 88 0 +2 по сезону 1029.0 1031.3 +3.5
09 12.01 С 2 20 км 8/0
[Ac trans]
+6.6 +3.2 79 +4 +7 по сезону 1026.3 1028.5
12 12.01 ЮВ 2 20 км 3/0
[Ac trans]
+6.5 +3.3 80 +4 +5 по сезону 1023.7 1026.0
15 12.01 Ю 2 10 км ясно +5.5 +3.7 88 +3 +3 по сезону 1021.6 1023.9 +7.4
18 12.01 Ю 2 10 км 9/9 300 м
[Cb cap]
+4.9 +2.6 85 +2 +2 по сезону 1019.1 1021.3
21 12.01 Ю 4 10 км 8/8 600 м
[Sc]
+4.4 +1.3 80 0 0 по сезону 1015.8 1018.1
00 13.01 ЮЗ 1 10 км 10/10 600 м
[Sc]
+5.9 +1.3 72 +5 +5 тепло 1012.7 1014.9
03 13.01 СЗ 2 10 км 10/10 600 м
[Sc]
+5.1 +1.1 75 +3 +3 по сезону 1010.0 1012.2 +3.0
06 13.01 СЗ 4 20 км 8/4 600 м
[Sc Ac trans]
+5.8 +0.7 70 +2 +3 по сезону 1012.5 1014.8
09 13.01 СЗ 6-13
{19}
20 км 10/10 300 м
[Cb cap]
+6.5 +0.1 64 +2 +2 по сезону 1014.2 1016.4
12 13.01 С 3
{14}
20 км 10/10 300 м
[Cb cap]
+6.4 +1.9 73 +3 +3 по сезону 1017.1 1019.4
15 13.01 штиль 0 10 км 8/4 300 м
[Cb cap Ac trans]
+5.8 +2.1 77 +5 +5 по сезону 1019.4 1021.6 +7.0
18 13.01 Ю 2 10 км 8/0
[Ac trans]
+5.8 +1.7 75 +4 +4 по сезону 1020.1 1022.3
21 13.01 Ю 2 10 км 8/0
[Ac trans]
+6.0 +1.4 72 +4 +4 по сезону 1021.1 1023.4
00 14.01 СЗ 2 10 км 10/10 600 м
[Sc]
+4.2 +1.3 81 +2 +2 по сезону 1023.2 1025.5
03 14.01 С 1 10 км 9/9 600 м
[Sc]
+3.8 +0.7 80 +2 +2 по сезону 1023.9 1026.2 +3.8
06 14.01 штиль 0 20 км 9/9 600 м
[Sc]
+4.1 +1.0 80 +3 +3 по сезону 1025.0 1027.3 +3.8
09 14.01 ЮВ 1 20 км 10/10 600 м
[Sc]
+5.0 +1.4 78 +4 +4 по сезону 1023.7 1025.9
12 14.01 ЮВ 2 20 км 10/10 300 м
[Cb cap]
+5.6 +2.2 79 +3 +3 по сезону 1023.3 1025.5
15 14.01 ЮВ 2 10 км 10/10 300 м
[Cb cap]
+4.9 +1.9 81 +2 +2 по сезону 1023.1 1025.4
18 14.01 ЮВ 2 10 км 10/10 300 м
[Cb cap]
+4.3 +1.1 80 +2 +2 по сезону 1022.5 1024.7
21 14.01 Ю 3 10 км 10/10 300 м
[Cb cap]
+5.2 +1.6 78 +2 +2 по сезону 1021.0 1023.3
00 15.01 штиль 0 10 км 10/10 300 м
[Cb cap]
+5.5 +1.3 74 +5 +5 тепло 1020.3 1022.6
03 15.01 СЗ 1 10 км 10/10 600 м
[Sc]
+5.0 +1.0 75 +4 +4 по сезону 1019.6 1021.8 +4.3
06 15.01 СЗ 3 20 км 8/8 600 м
[Sc]
+5.7 -1.4 60 +3 +3 по сезону 1019.7 1022.0
09 15.01 ЮВ 2 20 км 4/0
[Ac trans]
+7.3 +1.8 68 +5 +9 по сезону 1018.8 1021.0
12 15.01 ЮВ 1 20 км ясно +6.9 +1.2 67 +6 +8 по сезону 1019.1 1021.3
15 15.01 штиль 0 10 км 8/8 600 м
[Sc]
+6.4 +2.3 75 +6 +6 тепло 1020.1 1022.3 +8.0
18 15.01 В 1 10 км 10/10 300 м
[Cb cap]
+6.0 +4.0 87 +5 +5 по сезону 1020.2 1022.4
21 15.01 С 2 10 км 10/10 300 м
[Cb cap]
+5.3 +1.9 79 +3 +3 по сезону 1020.3 1022.6
00 16.01 ЮВ 1 10 км 10/10 600 м
[Sc]
+4.8 +2.8 87 +3 +3 по сезону 1021.5 1023.7
03 16.01 З 1 10 км 8/8 600 м
[Sc]
+4.7 +0.8 76 +4 +4 по сезону 1022.0 1024.3 +4.6
06 16.01 С 2 20 км 8/0
[Ac trans]
+6.0 +2.2 77 +4 +5 по сезону 1023.3 1025.6 +4.1
09 16.01 ЮВ 2 20 км 8/3 600 м
[Sc Ac trans Ci fib]
+6.8 +2.0 71 +5 +7 по сезону 1023.1 1025.3
12 16.01 ЮВ 3 20 км 9/5 300 м
[Cb cap Ac trans]
+5.7 +3.1 83 +2 +3 по сезону 1023.8 1026.0
15 16.01 ЮВ 3 10 км 9/6 300 м
[Cb cap Ac trans]
+5.4 +2.7 83 +2 +2 по сезону 1026.0 1028.2 +6.9
18 16.01 ЮВ 2 10 км 9/5 300 м
[Cb cap Ac trans]
+5.3 +2.7 83 +3 +3 по сезону 1026.9 1029.2
21 16.01 Ю 2 10 км 10/10 300 м
[Cb cap]
+5.0 +2.4 83 +2 +2 по сезону 1026.0 1028.3
00 17.01 ЮВ 2 10 км 10/10 600 м
[Sc]
+4.7 +2.6 86 +2 +2 по сезону 1025.9 1028.2
03 17.01 ЮВ 3 10 км 10/10 600 м
[Sc]
+4.9 +2.4 84 +1 +1 по сезону 1025.9 1028.1 +4.5
06 17.01 ЮВ 3 20 км 10/10 600 м
[Sc]
+5.1 +2.9 86 +2 +2 по сезону 1026.9 1029.1
09 17.01 ЮВ 3 20 км 10/10 300 м
[Cb cap]
+5.3 +3.2 86 +2 +2 по сезону 1025.8 1028.0
12 17.01 ЮВ 3 20 км 10/10 300 м
[Cb cap]
+5.1 +2.4 83 +2 +2 по сезону 1026.1 1028.4
15 17.01 Ю 2 10 км 10/10 300 м
[Cb cap]
+5.1 +2.0 80 +3 +3 по сезону 1027.4 1029.7 +5.5
18 17.01 Ю 1 10 км 10/10 600 м
[Sc]
+5.1 +2.1 81 +4 +4 по сезону 1027.8 1030.1
21 17.01 ЮВ 1 10 км 10/10 300 м
[Cb cap]
+4.6 +2.8 88 +3 +3 по сезону 1027.1 1029.4
00 18.01 ЮВ 1 10 км 10/10 300 м
[Cb cap]
+4.5 +2.7 88 +3 +3 по сезону 1027.3 1029.6

 

Местоположение метеостанции Дербент (Дагестан, Россия): широта 42.07 долгота 48.30 высота над уровнем моря -17 м.

В архиве по умолчанию представлена погода в Дербенте за последнюю неделю. Архивные данные за месяц целиком и за предыдущие месяцы, начиная с января 2011 года, Вы можете получить, выбрав интересующий диапазон дат из раскрывающегося списка и нажав кнопку "Ввод!".

Внимание! Время в таблицах - всемирное. Для получения местного времени необходимо прибавить поправку, которая в Дербенте равна 3 ч.

Ветер - указаны скорость ветра в м/с - средняя за 10 мин, порывы в срок и между сроками (в фигурных скобках) и направление, откуда дует ветер: С - северный, СВ - северо-восточный, В - восточный, ЮВ - юго-восточный, Ю - южный, ЮЗ - юго-западный, З - западный, СЗ - северо-западный.
Видимость - горизонтальная дальность видимости в метрах или километрах. При видимости от 1 до 10 км при отсутствии осадков обычно наблюдается дымка, при ухудшении видимости до 1 км и менее - туман. В сухую погоду видимость может ухудшаться дымом, пылью или мглою.
Явления - указаны атмосферные явления, наблюдавшиеся в срок или в последний час перед сроком; фигурными скобками обозначены явления, наблюдавшиеся между сроками (за 1-3 часа до срока); квадратными скобками обозначены град или гололедные отложения с указанием их диаметра в мм.
Облачность - указаны через наклонную черту общая и нижняя облачность в баллах и высота нижней границы облаков в метрах; квадратными скобками обозначены формы облаков: Ci - перистые, Cs - перисто-слоистые, Cc - перисто-кучевые, Ac - высококучевые, As - высокослоистые, Sc - слоисто-кучевые, Ns - слоисто-дождевые, Cu - кучевые, Cb - кучево-дождевые. Подробнее классификацию облаков см. в Атласе облаков (PDF).
T - Температура воздуха - температура, измеренная на высоте 2 м над землей.
Td - Температура точки росы - температура, при понижении до которой содержащийся в воздухе водяной пар достигнет насыщения.
f - Относительная влажность воздуха - влажноcть воздуха, измеренная на высоте 2 м над землей.
Te - Эффективная температура - температура, которую ощущает одетый по сезону человек в тени. Характеристика душности погоды. При расчете учитывается влияние влажности воздуха и скорости ветра на теплоощущения человека.
Tes - Эффективная температура на солнце - температура, которую ощущает человек, с поправкой на солнечный нагрев. Характеристика знойности погоды. Зависит от высоты солнца над горизонтом, облачности и скорости ветра. Ночью, в пасмурную погоду, а также при ветре 12 м/с и более поправка равна нулю.
P - Атмосферное давление - приведенное к уровню моря атмосферное давление.
Po - Атмосферное давление - измеренное на уровне метеостанции атмосферное давление.
Tmin - Минимальная температура - минимум температуры воздуха на высоте 2 м над землей.
Tmax - Максимальная температура - максимум температуры воздуха на высоте 2 м над землей.
R - Количество осадков - Количество выпавших осадков, мм. При наведении курсора мыши на число - период времени, за который выпало указанное количество осадков.
S - Снежный покров - Высота снежного покрова, см. При наведении курсора мыши на число - состояние снежного покрова и степень покрытия местности в баллах.